TimePDT,TemperatureF,Dew PointF,Humidity,Sea Level PressureIn,VisibilityMPH,Wind Direction,Wind SpeedMPH,Gust SpeedMPH,PrecipitationIn,Events,Conditions,WindDirDegrees,DateUTC
12:35 AM,51.8,48.2,88,30.11,10.0,Calm,Calm,-,N/A,,Overcast,0,2011-10-07 07:35:00
12:55 AM,51.8,48.2,88,30.10,10.0,Calm,Calm,-,N/A,,Overcast,0,2011-10-07 07:55:00
1:15 AM,51.8,48.2,88,30.11,10.0,Calm,Calm,-,N/A,,Overcast,0,2011-10-07 08:15:00
1:35 AM,51.8,48.2,88,30.11,10.0,SE,4.6,-,N/A,,Overcast,140,2011-10-07 08:35:00
1:55 AM,51.8,48.2,88,30.12,10.0,SSE,4.6,-,N/A,,Overcast,160,2011-10-07 08:55:00
2:15 AM,51.8,48.2,88,30.12,10.0,SSE,5.8,-,N/A,,Overcast,150,2011-10-07 09:15:00
2:35 AM,53.6,48.2,82,30.12,10.0,SSE,5.8,-,N/A,,Overcast,150,2011-10-07 09:35:00
2:55 AM,51.8,48.2,88,30.11,10.0,SSE,6.9,-,N/A,,Overcast,150,2011-10-07 09:55:00
3:15 AM,51.8,48.2,88,30.10,10.0,SE,6.9,-,N/A,,Overcast,140,2011-10-07 10:15:00
3:35 AM,51.8,48.2,88,30.11,10.0,SE,5.8,-,N/A,,Overcast,130,2011-10-07 10:35:00
3:55 AM,53.6,48.2,82,30.12,10.0,SE,4.6,-,N/A,,Overcast,140,2011-10-07 10:55:00
4:15 AM,53.6,48.2,82,30.11,10.0,SSE,4.6,-,N/A,,Overcast,150,2011-10-07 11:15:00
4:35 AM,51.8,48.2,88,30.11,10.0,SSE,5.8,-,N/A,,Overcast,150,2011-10-07 11:35:00
4:55 AM,53.6,48.2,82,30.12,10.0,SSE,3.5,-,N/A,,Overcast,150,2011-10-07 11:55:00
5:15 AM,51.8,48.2,88,30.12,10.0,SE,5.8,-,N/A,,Overcast,140,2011-10-07 12:15:00
5:35 AM,51.8,48.2,88,30.12,10.0,SSE,5.8,-,N/A,,Mostly Cloudy,160,2011-10-07 12:35:00
5:55 AM,51.8,48.2,88,30.12,8.0,SSE,5.8,-,N/A,,Overcast,150,2011-10-07 12:55:00
6:15 AM,51.8,48.2,88,30.12,10.0,SSE,6.9,-,N/A,,Overcast,150,2011-10-07 13:15:00
6:35 AM,51.8,48.2,88,30.12,8.0,SE,5.8,-,N/A,,Overcast,140,2011-10-07 13:35:00
6:55 AM,51.8,50.0,94,30.12,4.0,SSE,4.6,-,0.01,,Overcast,150,2011-10-07 13:55:00
7:15 AM,51.8,50.0,94,30.13,3.0,SSE,5.8,-,0.01,,Overcast,150,2011-10-07 14:15:00
7:35 AM,51.8,50.0,94,30.13,5.0,SSE,5.8,-,0.01,,Overcast,160,2011-10-07 14:35:00
7:55 AM,51.8,50.0,94,30.13,2.5,SE,6.9,-,0.02,,Overcast,140,2011-10-07 14:55:00
8:15 AM,51.8,50.0,94,30.14,4.0,SSE,5.8,-,N/A,,Overcast,160,2011-10-07 15:15:00
8:35 AM,51.8,50.0,94,30.14,4.0,SSE,6.9,-,0.01,,Overcast,160,2011-10-07 15:35:00
8:55 AM,53.6,50.0,88,30.14,5.0,SSE,6.9,-,0.01,,Overcast,150,2011-10-07 15:55:00
9:15 AM,53.6,50.0,88,30.14,5.0,SSE,6.9,-,N/A,,Overcast,150,2011-10-07 16:15:00
9:35 AM,53.6,50.0,88,30.14,10.0,South,6.9,-,0.01,,Overcast,170,2011-10-07 16:35:00
9:55 AM,53.6,50.0,88,30.15,10.0,SSE,6.9,-,0.01,,Overcast,160,2011-10-07 16:55:00
10:35 AM,53.6,51.8,94,30.15,10.0,SSE,5.8,-,N/A,,Overcast,160,2011-10-07 17:35:00
10:55 AM,55.4,51.8,88,30.15,10.0,SSE,6.9,-,N/A,,Overcast,160,2011-10-07 17:55:00
11:15 AM,55.4,51.8,88,30.16,10.0,SSE,6.9,-,N/A,,Overcast,150,2011-10-07 18:15:00
11:35 AM,55.4,51.8,88,30.16,10.0,SE,5.8,-,N/A,,Overcast,140,2011-10-07 18:35:00
11:55 AM,55.4,51.8,88,30.16,10.0,SE,5.8,-,N/A,,Overcast,140,2011-10-07 18:55:00
12:15 PM,55.4,51.8,88,30.16,5.0,SE,4.6,-,N/A,,Overcast,130,2011-10-07 19:15:00
12:35 PM,55.4,51.8,88,30.16,5.0,SE,4.6,-,N/A,,Overcast,130,2011-10-07 19:35:00
12:55 PM,55.4,51.8,88,30.16,8.0,SSE,6.9,-,N/A,,Overcast,150,2011-10-07 19:55:00
1:15 PM,55.4,51.8,88,30.16,4.0,ESE,3.5,-,N/A,,Overcast,120,2011-10-07 20:15:00
1:35 PM,55.4,51.8,88,30.16,5.0,SSE,5.8,-,N/A,,Overcast,150,2011-10-07 20:35:00
2:15 PM,55.4,53.6,94,30.16,9.0,SSE,4.6,-,N/A,,Overcast,160,2011-10-07 21:15:00
2:35 PM,55.4,53.6,94,30.16,10.0,SSE,4.6,-,N/A,,Overcast,160,2011-10-07 21:35:00
2:55 PM,57.2,53.6,88,30.16,10.0,South,5.8,-,N/A,,Overcast,170,2011-10-07 21:55:00
3:15 PM,57.2,53.6,88,30.17,7.0,South,5.8,-,N/A,,Overcast,180,2011-10-07 22:15:00
3:35 PM,57.2,53.6,88,30.17,10.0,SSE,4.6,-,N/A,,Overcast,160,2011-10-07 22:35:00
3:55 PM,57.2,53.6,88,30.17,5.0,South,4.6,-,N/A,,Overcast,170,2011-10-07 22:55:00
4:15 PM,57.2,53.6,88,30.17,2.0,South,4.6,-,N/A,,Overcast,170,2011-10-07 23:15:00
4:35 PM,55.4,53.6,94,30.17,8.0,Calm,Calm,-,N/A,,Overcast,0,2011-10-07 23:35:00
4:55 PM,55.4,53.6,94,30.17,5.0,SSE,3.5,-,N/A,,Overcast,160,2011-10-07 23:55:00
5:15 PM,57.2,53.6,88,30.16,10.0,SSE,3.5,-,N/A,,Overcast,160,2011-10-08 00:15:00
5:35 PM,57.2,53.6,88,30.17,7.0,South,3.5,-,N/A,,Overcast,170,2011-10-08 00:35:00
5:55 PM,55.4,53.6,94,30.17,9.0,SSE,3.5,-,N/A,,Overcast,160,2011-10-08 00:55:00
6:15 PM,55.4,53.6,94,30.17,3.0,Calm,Calm,-,N/A,,Overcast,0,2011-10-08 01:15:00
6:35 PM,55.4,53.6,94,30.17,0.2,Calm,Calm,-,N/A,,Overcast,0,2011-10-08 01:35:00
6:55 PM,55.4,53.6,94,30.18,2.5,SE,3.5,-,N/A,,Overcast,130,2011-10-08 01:55:00
7:15 PM,55.4,53.6,94,30.18,10.0,SSE,4.6,-,N/A,,Overcast,160,2011-10-08 02:15:00
7:35 PM,55.4,53.6,94,30.19,10.0,SSE,4.6,-,N/A,,Overcast,150,2011-10-08 02:35:00
7:55 PM,55.4,53.6,94,30.19,10.0,Calm,Calm,-,N/A,,Overcast,0,2011-10-08 02:55:00
8:15 PM,55.4,53.6,94,30.19,10.0,Calm,Calm,-,N/A,,Overcast,0,2011-10-08 03:15:00
8:35 PM,55.4,53.6,94,30.19,10.0,Calm,Calm,-,N/A,,Overcast,0,2011-10-08 03:35:00
8:55 PM,55.4,53.6,94,30.20,10.0,Calm,Calm,-,N/A,,Overcast,0,2011-10-08 03:55:00
9:15 PM,55.4,53.6,94,30.19,10.0,Calm,Calm,-,N/A,,Overcast,0,2011-10-08 04:15:00
9:35 PM,55.4,53.6,94,30.19,10.0,Calm,Calm,-,N/A,,Overcast,0,2011-10-08 04:35:00
9:55 PM,55.4,53.6,94,30.20,10.0,Calm,Calm,-,N/A,,Overcast,0,2011-10-08 04:55:00
10:15 PM,55.4,53.6,94,30.20,10.0,Calm,Calm,-,N/A,,Overcast,0,2011-10-08 05:15:00
10:35 PM,55.4,53.6,94,30.21,10.0,Calm,Calm,-,N/A,,Overcast,0,2011-10-08 05:35:00
11:15 PM,55.4,53.6,94,30.20,10.0,Calm,Calm,-,N/A,,Overcast,0,2011-10-08 06:15:00
11:35 PM,55.4,53.6,94,30.20,10.0,Calm,Calm,-,N/A,,Overcast,0,2011-10-08 06:35:00
11:55 PM,55.4,53.6,94,30.20,10.0,Calm,Calm,-,N/A,,Overcast,0,2011-10-08 06:55:00